Tracking 30400 objects as of 13-May-2025
HD Live streaming from Space Station
objects crossing your sky now

QIANFAN-78

Track QIANFAN-78 now!
10-day predictions
QIANFAN-78 is classified as:


NORAD ID: 63164
Int'l Code: 2025-046F
Perigee: 998.2 km
Apogee: 1,021.5 km
Inclination: 89.0 °
Period: 105.2 minutes
Semi major axis: 7380 km
RCS: Unknown
Launch date: March 11, 2025
Source: People's Republic of China (PRC)
Launch site: Wenchang Satellite Launch Center (WSC)
Your satellite tracking list
Your tracking list is empty




NASA's NSSDC Master Catalog

Two Line Element Set (TLE):
1 63164U 25046F   25133.58469536  .00000154  00000-0  16380-3 0  9998
2 63164  88.9832 341.9689 0015749  32.9981 327.2160 13.69124656 18630
Source of the keplerian elements: AFSPC